Time,TemperatureF,DewpointF,PressureIn,WindDirection,WindDirectionDegrees,WindSpeedMPH,WindSpeedGustMPH,Humidity,HourlyPrecipIn,Conditions,Clouds,dailyrainin,SolarRadiationWatts/m^2,SoftwareType,DateUTC
2013-04-10 00:00:00,72.1,70.3,29.66,SE,126,16.1,16.1,94,0.00,OVC,SKC,0.00,0.0,WeatherDisplay:10.37,2013-04-10 05:00:00,
2013-04-10 00:05:00,72.0,70.2,29.66,SE,128,12.7,12.7,94,0.00,OVC,SKC,0.00,0.0,WeatherDisplay:10.37,2013-04-10 05:05:00,
2013-04-10 00:10:00,72.0,70.2,29.66,ESE,117,12.7,12.7,94,0.00,OVC,SKC,0.00,0.0,WeatherDisplay:10.37,2013-04-10 05:10:00,
2013-04-10 00:15:00,71.9,70.1,29.66,ESE,120,17.3,17.3,94,0.00,OVC,SKC,0.00,0.0,WeatherDisplay:10.37,2013-04-10 05:15:00,
2013-04-10 00:20:00,71.9,70.1,29.66,ESE,118,11.5,11.5,94,0.00,OVC,SKC,0.00,0.0,WeatherDisplay:10.37,2013-04-10 05:20:00,
2013-04-10 00:25:00,71.9,70.1,29.67,ESE,119,11.5,11.5,94,0.00,OVC,SKC,0.00,0.0,WeatherDisplay:10.37,2013-04-10 05:25:00,
2013-04-10 00:31:00,71.9,70.1,29.67,SE,129,9.0,12.0,94,0.00,CLR,SKC,0.00,0.0,WeatherDisplay:10.37,2013-04-10 05:31:00,
2013-04-10 00:36:00,71.9,70.1,29.67,SSE,149,13.8,13.8,94,0.00,CLR,SKC,0.00,0.0,WeatherDisplay:10.37,2013-04-10 05:36:00,
2013-04-10 00:41:00,71.9,70.1,29.67,ESE,117,11.5,11.5,94,0.00,CLR,SKC,0.00,0.0,WeatherDisplay:10.37,2013-04-10 05:41:00,
2013-04-10 00:46:00,72.0,70.2,29.67,SE,146,10.4,10.4,94,0.00,CLR,SKC,0.00,0.0,WeatherDisplay:10.37,2013-04-10 05:46:00,
2013-04-10 00:51:00,72.0,70.2,29.67,SE,132,7.0,14.0,94,0.00,CLR,SKC,0.00,0.0,WeatherDisplay:10.37,2013-04-10 05:51:00,
2013-04-10 00:56:00,72.0,70.2,29.67,South,173,16.1,16.1,94,0.00,CLR,SKC,0.00,0.0,WeatherDisplay:10.37,2013-04-10 05:56:00,
2013-04-10 01:01:00,71.9,70.1,29.67,SE,138,12.7,12.7,94,0.00,OVC,SKC,0.00,0.0,WeatherDisplay:10.37,2013-04-10 06:01:00,
2013-04-10 01:06:00,71.9,70.1,29.67,SE,129,10.4,10.4,94,0.00,-RA,SKC,0.00,0.0,WeatherDisplay:10.37,2013-04-10 06:06:00,
2013-04-10 01:11:00,71.9,70.1,29.66,SSE,159,11.5,11.5,94,0.00,-RA,SKC,0.00,0.0,WeatherDisplay:10.37,2013-04-10 06:11:00,
2013-04-10 01:16:00,71.9,70.1,29.66,East,94,11.5,11.5,94,0.00,-RA,SKC,0.00,0.0,WeatherDisplay:10.37,2013-04-10 06:16:00,
2013-04-10 01:21:00,71.9,70.1,29.66,SE,144,12.0,18.0,94,0.00,CLR,SKC,0.00,0.0,WeatherDisplay:10.37,2013-04-10 06:21:00,
2013-04-10 01:26:00,71.9,70.1,29.66,ESE,121,13.8,13.8,94,0.00,-RA,SKC,0.00,0.0,WeatherDisplay:10.37,2013-04-10 06:26:00,
2013-04-10 01:31:00,71.9,70.1,29.66,SE,136,8.0,15.0,94,0.00,CLR,SKC,0.00,0.0,WeatherDisplay:10.37,2013-04-10 06:31:00,
2013-04-10 01:36:00,71.9,70.1,29.66,SE,136,15.0,15.0,94,0.00,CLR,SKC,0.00,0.0,WeatherDisplay:10.37,2013-04-10 06:36:00,
2013-04-10 01:41:00,71.9,70.1,29.66,SE,135,8.0,16.0,94,0.00,CLR,SKC,0.00,0.0,WeatherDisplay:10.37,2013-04-10 06:41:00,
2013-04-10 01:46:00,71.8,70.0,29.66,ESE,123,11.5,11.5,94,0.00,-RA,SKC,0.00,0.0,WeatherDisplay:10.37,2013-04-10 06:46:00,
2013-04-10 01:51:00,71.8,70.0,29.66,SE,132,8.0,14.0,94,0.00,CLR,SKC,0.00,0.0,WeatherDisplay:10.37,2013-04-10 06:51:00,
2013-04-10 01:56:00,71.8,70.0,29.66,ESE,121,12.7,12.7,94,0.00,-RA,SKC,0.00,0.0,WeatherDisplay:10.37,2013-04-10 06:56:00,
2013-04-10 02:01:00,71.8,70.0,29.66,SE,131,12.7,12.7,94,0.00,-RA,SKC,0.00,0.0,WeatherDisplay:10.37,2013-04-10 07:01:00,
2013-04-10 02:06:00,71.8,70.0,29.66,SE,143,15.0,15.0,94,0.00,OVC,SKC,0.00,0.0,WeatherDisplay:10.37,2013-04-10 07:06:00,
2013-04-10 02:11:00,71.9,70.1,29.65,SE,138,7.0,16.0,94,0.00,CLR,SKC,0.00,0.0,WeatherDisplay:10.37,2013-04-10 07:11:00,
2013-04-10 02:16:00,71.9,70.1,29.65,ESE,122,12.7,12.7,94,0.00,CLR,SKC,0.00,0.0,WeatherDisplay:10.37,2013-04-10 07:16:00,
2013-04-10 02:21:00,71.9,70.1,29.65,SE,136,7.0,15.0,94,0.00,CLR,SKC,0.00,0.0,WeatherDisplay:10.37,2013-04-10 07:21:00,
2013-04-10 02:26:00,72.0,70.2,29.65,SSE,152,11.5,11.5,94,0.00,OVC,SKC,0.00,0.0,WeatherDisplay:10.37,2013-04-10 07:26:00,
2013-04-10 02:31:00,72.0,70.2,29.65,SE,130,8.0,10.0,94,0.00,CLR,SKC,0.00,0.0,WeatherDisplay:10.37,2013-04-10 07:31:00,
2013-04-10 02:36:00,72.0,70.2,29.65,ESE,112,11.5,11.5,94,0.00,OVC,SKC,0.00,0.0,WeatherDisplay:10.37,2013-04-10 07:36:00,
2013-04-10 02:41:00,71.9,70.1,29.65,SE,130,9.0,16.0,94,0.00,CLR,SKC,0.00,0.0,WeatherDisplay:10.37,2013-04-10 07:41:00,
2013-04-10 02:46:00,71.8,70.0,29.64,SE,124,11.5,11.5,94,0.00,OVC,SKC,0.00,0.0,WeatherDisplay:10.37,2013-04-10 07:46:00,
2013-04-10 02:51:00,71.7,69.9,29.64,SE,130,8.0,16.0,94,0.00,CLR,SKC,0.00,0.0,WeatherDisplay:10.37,2013-04-10 07:51:00,
2013-04-10 02:56:00,71.7,69.9,29.64,SE,138,15.0,15.0,94,0.00,OVC,SKC,0.00,0.0,WeatherDisplay:10.37,2013-04-10 07:56:00,
2013-04-10 03:01:00,71.6,69.8,29.64,ESE,120,11.5,11.5,94,0.00,OVC,SKC,0.00,0.0,WeatherDisplay:10.37,2013-04-10 08:01:00,
2013-04-10 03:06:00,71.5,69.7,29.64,SE,133,11.5,11.5,94,0.00,OVC,SKC,0.00,0.0,WeatherDisplay:10.37,2013-04-10 08:06:00,
2013-04-10 03:11:00,71.4,69.6,29.63,SE,137,8.0,14.0,94,0.00,CLR,SKC,0.00,0.0,WeatherDisplay:10.37,2013-04-10 08:11:00,
2013-04-10 03:16:00,71.4,69.6,29.62,SE,132,11.5,11.5,94,0.00,OVC,SKC,0.00,0.0,WeatherDisplay:10.37,2013-04-10 08:16:00,
2013-04-10 03:21:00,71.3,69.5,29.62,SE,131,8.0,14.0,94,0.00,CLR,SKC,0.00,0.0,WeatherDisplay:10.37,2013-04-10 08:21:00,
2013-04-10 03:26:00,71.3,69.8,29.62,SE,130,11.5,11.5,95,0.00,CLR,SKC,0.00,0.0,WeatherDisplay:10.37,2013-04-10 08:26:00,
2013-04-10 03:31:00,71.2,69.7,29.62,SE,133,7.0,10.0,95,0.00,CLR,SKC,0.00,0.0,WeatherDisplay:10.37,2013-04-10 08:31:00,
2013-04-10 03:36:00,71.2,69.7,29.62,SE,126,15.0,15.0,95,0.00,OVC,SKC,0.00,0.0,WeatherDisplay:10.37,2013-04-10 08:36:00,
2013-04-10 03:41:00,71.2,69.7,29.62,SE,137,9.0,15.0,95,0.00,CLR,SKC,0.00,0.0,WeatherDisplay:10.37,2013-04-10 08:41:00,
2013-04-10 03:46:00,71.2,69.7,29.62,SE,146,19.6,19.6,95,0.00,OVC,SKC,0.00,0.0,WeatherDisplay:10.37,2013-04-10 08:46:00,
2013-04-10 03:51:00,71.2,69.7,29.62,SSE,157,11.5,11.5,95,0.00,CLR,SKC,0.00,0.0,WeatherDisplay:10.37,2013-04-10 08:51:00,
2013-04-10 03:56:00,71.2,69.7,29.61,East,98,16.1,16.1,95,0.00,OVC,SKC,0.00,0.0,WeatherDisplay:10.37,2013-04-10 08:56:00,
2013-04-10 04:01:00,71.3,69.8,29.61,ESE,117,10.4,10.4,95,0.00,OVC,SKC,0.00,0.0,WeatherDisplay:10.37,2013-04-10 09:01:00,
2013-04-10 04:06:00,71.3,69.8,29.61,ESE,123,10.4,10.4,95,0.00,CLR,SKC,0.00,0.0,WeatherDisplay:10.37,2013-04-10 09:06:00,
2013-04-10 04:11:00,71.3,69.8,29.61,SE,129,8.0,16.0,95,0.00,CLR,SKC,0.00,0.0,WeatherDisplay:10.37,2013-04-10 09:11:00,
2013-04-10 04:16:00,71.3,69.8,29.60,ESE,121,16.0,16.0,95,0.00,OVC,SKC,0.00,0.0,WeatherDisplay:10.37,2013-04-10 09:16:00,
2013-04-10 04:21:00,71.3,69.8,29.60,SE,126,8.0,17.0,95,0.00,CLR,SKC,0.00,0.0,WeatherDisplay:10.37,2013-04-10 09:21:00,
2013-04-10 04:26:00,71.3,69.8,29.60,ESE,123,15.0,15.0,95,0.00,OVC,SKC,0.00,0.0,WeatherDisplay:10.37,2013-04-10 09:26:00,
2013-04-10 04:31:00,71.3,69.8,29.60,ESE,123,10.0,14.0,95,0.00,CLR,SKC,0.00,0.0,WeatherDisplay:10.37,2013-04-10 09:31:00,
2013-04-10 04:36:00,71.3,69.8,29.60,ESE,120,15.0,15.0,95,0.00,CLR,SKC,0.00,0.0,WeatherDisplay:10.37,2013-04-10 09:36:00,
2013-04-10 04:41:00,71.3,69.8,29.60,SE,129,12.0,18.0,95,0.00,CLR,SKC,0.00,0.0,WeatherDisplay:10.37,2013-04-10 09:41:00,
2013-04-10 04:46:00,71.3,69.8,29.60,SE,144,16.1,16.1,95,0.00,CLR,SKC,0.00,0.0,WeatherDisplay:10.37,2013-04-10 09:46:00,
2013-04-10 04:51:00,71.3,69.8,29.60,SE,130,10.0,18.0,95,0.00,CLR,SKC,0.00,0.0,WeatherDisplay:10.37,2013-04-10 09:51:00,
2013-04-10 04:56:00,71.3,69.8,29.59,ESE,112,17.3,17.3,95,0.00,CLR,SKC,0.00,0.0,WeatherDisplay:10.37,2013-04-10 09:56:00,
2013-04-10 05:01:00,71.3,69.8,29.59,SE,125,17.0,17.0,95,0.00,OVC,SKC,0.00,0.0,WeatherDisplay:10.37,2013-04-10 10:01:00,
2013-04-10 05:06:00,71.3,69.8,29.59,SSE,153,12.7,12.7,95,0.00,OVC,SKC,0.00,0.0,WeatherDisplay:10.37,2013-04-10 10:06:00,
2013-04-10 05:11:00,71.2,69.7,29.59,ESE,119,9.0,18.0,95,0.00,CLR,SKC,0.00,0.0,WeatherDisplay:10.37,2013-04-10 10:11:00,
2013-04-10 05:16:00,71.2,69.7,29.59,East,101,15.0,15.0,95,0.00,OVC,SKC,0.00,0.0,WeatherDisplay:10.37,2013-04-10 10:16:00,
2013-04-10 05:21:00,71.1,69.6,29.59,ESE,112,10.0,17.0,95,0.00,CLR,SKC,0.00,0.0,WeatherDisplay:10.37,2013-04-10 10:21:00,
2013-04-10 05:26:00,71.1,69.6,29.59,ESE,119,13.8,13.8,95,0.00,OVC,SKC,0.00,0.0,WeatherDisplay:10.37,2013-04-10 10:26:00,
2013-04-10 05:31:00,71.1,69.6,29.59,ESE,115,12.0,15.0,95,0.00,CLR,SKC,0.00,0.0,WeatherDisplay:10.37,2013-04-10 10:31:00,
2013-04-10 05:36:00,71.1,69.6,29.59,ESE,123,12.7,12.7,95,0.00,CLR,SKC,0.00,0.0,WeatherDisplay:10.37,2013-04-10 10:36:00,
2013-04-10 05:41:00,71.1,69.6,29.59,ESE,109,15.0,15.0,95,0.00,OVC,SKC,0.00,0.0,WeatherDisplay:10.37,2013-04-10 10:41:00,
2013-04-10 05:46:00,71.1,69.6,29.59,East,101,12.7,12.7,95,0.00,OVC,SKC,0.00,0.0,WeatherDisplay:10.37,2013-04-10 10:46:00,
2013-04-10 05:51:00,71.0,69.5,29.59,ESE,119,10.0,18.0,95,0.00,CLR,SKC,0.00,0.0,WeatherDisplay:10.37,2013-04-10 10:51:00,
2013-04-10 05:56:00,71.0,69.5,29.59,East,96,15.0,15.0,95,0.00,OVC,SKC,0.00,0.0,WeatherDisplay:10.37,2013-04-10 10:56:00,
2013-04-10 06:01:00,71.0,69.8,29.59,East,99,11.5,11.5,96,0.00,OVC,SKC,0.00,0.0,WeatherDisplay:10.37,2013-04-10 11:01:00,
2013-04-10 06:06:00,71.0,69.8,29.59,SE,136,17.3,17.3,96,0.00,CLR,SKC,0.00,0.0,WeatherDisplay:10.37,2013-04-10 11:06:00,
2013-04-10 06:11:00,71.0,69.8,29.59,ESE,120,9.0,17.0,96,0.00,CLR,SKC,0.00,0.0,WeatherDisplay:10.37,2013-04-10 11:11:00,
2013-04-10 06:16:00,71.0,69.8,29.59,East,100,12.7,12.7,96,0.00,FEW,SKC,0.00,0.0,WeatherDisplay:10.37,2013-04-10 11:16:00,
2013-04-10 06:21:00,71.0,69.8,29.59,ESE,122,10.0,17.0,96,0.00,CLR,SKC,0.00,0.0,WeatherDisplay:10.37,2013-04-10 11:21:00,
2013-04-10 06:26:00,71.0,69.8,29.59,ESE,121,15.0,15.0,96,0.00,CLR,SKC,0.00,0.0,WeatherDisplay:10.37,2013-04-10 11:26:00,
2013-04-10 06:31:00,71.0,69.8,29.59,ESE,120,8.0,12.0,96,0.00,CLR,SKC,0.00,0.0,WeatherDisplay:10.37,2013-04-10 11:31:00,
2013-04-10 06:36:00,71.0,69.8,29.59,ESE,111,16.1,16.1,96,0.00,FEW,SKC,0.00,0.0,WeatherDisplay:10.37,2013-04-10 11:36:00,
2013-04-10 06:41:00,71.1,69.9,29.59,ESE,121,10.0,16.0,96,0.00,CLR,SKC,0.00,0.0,WeatherDisplay:10.37,2013-04-10 11:41:00,
2013-04-10 06:46:00,71.1,69.9,29.59,ESE,116,11.5,11.5,96,0.00,FEW,SKC,0.00,0.0,WeatherDisplay:10.37,2013-04-10 11:46:00,
2013-04-10 06:51:00,71.1,69.9,29.59,ESE,111,13.8,13.8,96,0.00,FEW,SKC,0.00,0.0,WeatherDisplay:10.37,2013-04-10 11:51:00,
2013-04-10 06:56:00,71.1,69.9,29.60,SE,134,12.7,12.7,96,0.00,FEW,SKC,0.00,0.0,WeatherDisplay:10.37,2013-04-10 11:56:00,
2013-04-10 07:01:00,71.1,69.9,29.60,SE,128,13.8,13.8,96,0.00,FEW,SKC,0.00,0.0,WeatherDisplay:10.37,2013-04-10 12:01:00,
2013-04-10 07:06:00,71.1,69.9,29.60,SE,133,11.5,11.5,96,0.00,OVC,SKC,0.00,0.0,WeatherDisplay:10.37,2013-04-10 12:06:00,
2013-04-10 07:11:00,71.2,70.0,29.61,SE,142,11.5,11.5,96,0.00,OVC,SKC,0.00,0.0,WeatherDisplay:10.37,2013-04-10 12:11:00,
2013-04-10 07:16:00,71.2,70.0,29.61,SE,133,10.4,10.4,96,0.00,OVC,SKC,0.00,0.0,WeatherDisplay:10.37,2013-04-10 12:16:00,
2013-04-10 07:21:00,71.2,70.0,29.61,SE,145,12.7,12.7,96,0.00,OVC,SKC,0.00,5.0,WeatherDisplay:10.37,2013-04-10 12:21:00,
2013-04-10 07:26:00,71.2,70.0,29.61,ESE,118,10.4,10.4,96,0.00,OVC,SKC,0.00,11.0,WeatherDisplay:10.37,2013-04-10 12:26:00,
2013-04-10 07:31:00,71.3,70.1,29.61,East,101,10.4,10.4,96,0.00,OVC,SKC,0.00,12.0,WeatherDisplay:10.37,2013-04-10 12:31:00,
2013-04-10 07:36:00,71.2,70.0,29.61,ESE,115,15.0,15.0,96,0.00,OVC,SKC,0.00,16.0,WeatherDisplay:10.37,2013-04-10 12:36:00,
2013-04-10 07:41:00,71.2,70.0,29.61,SE,146,11.5,11.5,96,0.00,OVC,SKC,0.00,21.0,WeatherDisplay:10.37,2013-04-10 12:41:00,
2013-04-10 07:46:00,71.2,70.0,29.61,ESE,123,11.5,11.5,96,0.00,OVC,SKC,0.00,23.0,WeatherDisplay:10.37,2013-04-10 12:46:00,
2013-04-10 07:51:00,71.2,70.0,29.61,SSE,167,11.5,11.5,96,0.00,OVC,SKC,0.00,26.0,WeatherDisplay:10.37,2013-04-10 12:51:00,
2013-04-10 07:56:00,71.2,70.0,29.61,SE,137,11.5,11.5,96,0.00,OVC,SKC,0.00,32.0,WeatherDisplay:10.37,2013-04-10 12:56:00,
2013-04-10 08:01:00,71.2,70.0,29.61,SSE,155,11.5,11.5,96,0.00,OVC,SKC,0.00,30.0,WeatherDisplay:10.37,2013-04-10 13:01:00,
2013-04-10 08:06:00,71.1,69.9,29.61,SE,130,11.5,11.5,96,0.00,OVC,SKC,0.00,44.0,WeatherDisplay:10.37,2013-04-10 13:06:00,
2013-04-10 08:11:00,71.2,70.0,29.61,SSE,150,11.5,11.5,96,0.00,OVC,SKC,0.00,67.0,WeatherDisplay:10.37,2013-04-10 13:11:00,
2013-04-10 08:16:00,71.2,70.0,29.61,SE,130,13.8,13.8,96,0.00,OVC,SKC,0.00,49.0,WeatherDisplay:10.37,2013-04-10 13:16:00,
2013-04-10 08:21:00,71.2,70.0,29.61,ESE,123,12.7,12.7,96,0.00,OVC,SKC,0.00,49.0,WeatherDisplay:10.37,2013-04-10 13:21:00,
2013-04-10 08:26:00,71.2,70.0,29.61,SSE,164,13.8,13.8,96,0.00,OVC,SKC,0.00,46.0,WeatherDisplay:10.37,2013-04-10 13:26:00,
2013-04-10 08:31:00,71.2,69.7,29.61,SE,144,11.5,11.5,95,0.00,OVC,SKC,0.00,33.0,WeatherDisplay:10.37,2013-04-10 13:31:00,
2013-04-10 08:36:00,71.2,69.7,29.61,SSE,165,10.4,10.4,95,0.00,CLR,SKC,0.00,56.0,WeatherDisplay:10.37,2013-04-10 13:36:00,
2013-04-10 08:41:00,71.3,69.8,29.62,SE,134,11.5,11.5,95,0.00,OVC,SKC,0.00,100.0,WeatherDisplay:10.37,2013-04-10 13:41:00,
2013-04-10 08:46:00,71.3,69.8,29.62,SE,128,8.1,8.1,95,0.00,CLR,SKC,0.00,72.0,WeatherDisplay:10.37,2013-04-10 13:46:00,
2013-04-10 08:51:00,71.4,69.9,29.62,SSE,157,10.4,10.4,95,0.00,OVC,SKC,0.00,65.0,WeatherDisplay:10.37,2013-04-10 13:51:00,
2013-04-10 08:56:00,71.5,70.0,29.62,South,177,5.8,5.8,95,0.00,OVC,SKC,0.00,111.0,WeatherDisplay:10.37,2013-04-10 13:56:00,
2013-04-10 09:01:00,71.7,70.5,29.62,SSE,150,11.5,11.5,96,0.00,OVC,SKC,0.00,114.0,WeatherDisplay:10.37,2013-04-10 14:01:00,
2013-04-10 09:06:00,71.8,70.3,29.62,SE,126,10.4,10.4,95,0.00,OVC,SKC,0.00,137.0,WeatherDisplay:10.37,2013-04-10 14:06:00,
2013-04-10 09:11:00,71.9,70.4,29.62,SSE,148,3.0,12.0,95,0.00,CLR,SKC,0.00,155.0,WeatherDisplay:10.37,2013-04-10 14:11:00,
2013-04-10 09:16:00,72.0,70.5,29.62,SE,140,11.5,11.5,95,0.00,OVC,SKC,0.00,116.0,WeatherDisplay:10.37,2013-04-10 14:16:00,
2013-04-10 09:21:00,72.1,70.6,29.62,SSE,168,9.2,9.2,95,0.00,OVC,SKC,0.00,130.0,WeatherDisplay:10.37,2013-04-10 14:21:00,
2013-04-10 09:26:00,72.1,70.6,29.63,SSE,152,11.5,11.5,95,0.00,OVC,SKC,0.00,98.0,WeatherDisplay:10.37,2013-04-10 14:26:00,
2013-04-10 09:31:00,72.2,70.7,29.63,SSE,165,5.8,5.8,95,0.00,OVC,SKC,0.00,134.0,WeatherDisplay:10.37,2013-04-10 14:31:00,
2013-04-10 09:36:00,72.3,70.8,29.63,SSW,200,10.0,10.0,95,0.00,OVC,SKC,0.00,121.0,WeatherDisplay:10.37,2013-04-10 14:36:00,
2013-04-10 09:41:00,72.4,70.9,29.64,South,180,9.2,9.2,95,0.00,OVC,SKC,0.00,98.0,WeatherDisplay:10.37,2013-04-10 14:41:00,
2013-04-10 09:46:00,72.4,70.6,29.64,SSE,156,5.8,5.8,94,0.00,OVC,SKC,0.00,118.0,WeatherDisplay:10.37,2013-04-10 14:46:00,
2013-04-10 09:51:00,72.5,70.7,29.64,South,173,5.0,5.0,94,0.00,OVC,SKC,0.00,167.0,WeatherDisplay:10.37,2013-04-10 14:51:00,
2013-04-10 09:56:00,72.6,70.8,29.65,ESE,119,3.5,3.5,94,0.00,OVC,SKC,0.00,188.0,WeatherDisplay:10.37,2013-04-10 14:56:00,
2013-04-10 10:01:00,72.7,70.9,29.65,SSW,199,3.5,3.5,94,0.00,OVC,SKC,0.00,121.0,WeatherDisplay:10.37,2013-04-10 15:01:00,
2013-04-10 10:06:00,72.8,71.0,29.65,SSE,167,6.0,6.0,94,0.00,CLR,SKC,0.00,137.0,WeatherDisplay:10.37,2013-04-10 15:06:00,
2013-04-10 10:11:00,72.9,71.1,29.67,SE,131,3.5,3.5,94,0.00,OVC,SKC,0.00,120.0,WeatherDisplay:10.37,2013-04-10 15:11:00,
2013-04-10 10:16:00,73.0,71.2,29.67,SW,219,1.1,1.3,94,0.00,OVC,SKC,0.00,90.0,WeatherDisplay:10.37,2013-04-10 15:16:00,
2013-04-10 10:21:00,73.2,71.4,29.67,SW,227,2.3,2.3,94,0.00,OVC,SKC,0.00,109.0,WeatherDisplay:10.37,2013-04-10 15:21:00,
2013-04-10 10:26:00,73.3,71.5,29.68,SSE,159,3.5,3.5,94,0.00,OVC,SKC,0.00,146.0,WeatherDisplay:10.37,2013-04-10 15:26:00,
2013-04-10 10:31:00,73.5,71.7,29.68,SE,144,4.6,4.6,94,0.00,OVC,SKC,0.00,148.0,WeatherDisplay:10.37,2013-04-10 15:31:00,
2013-04-10 10:36:00,73.7,71.5,29.68,NE,49,5.8,5.8,93,0.00,CLR,SKC,0.00,130.0,WeatherDisplay:10.37,2013-04-10 15:36:00,
2013-04-10 10:41:00,73.9,71.7,29.69,SW,222,3.5,3.5,93,0.00,OVC,SKC,0.00,123.0,WeatherDisplay:10.37,2013-04-10 15:41:00,
2013-04-10 10:46:00,74.0,71.5,29.69,SSW,213,10.4,10.4,92,0.00,OVC,SKC,0.00,109.0,WeatherDisplay:10.37,2013-04-10 15:46:00,
2013-04-10 10:51:00,74.3,71.8,29.69,SE,138,9.2,9.2,92,0.00,OVC,SKC,0.00,160.0,WeatherDisplay:10.37,2013-04-10 15:51:00,
2013-04-10 10:56:00,74.5,72.0,29.69,East,88,4.6,4.6,92,0.00,OVC,SKC,0.00,193.0,WeatherDisplay:10.37,2013-04-10 15:56:00,
2013-04-10 11:01:00,74.8,72.0,29.69,SSE,157,6.9,6.9,91,0.00,OVC,SKC,0.00,258.0,WeatherDisplay:10.37,2013-04-10 16:01:00,
2013-04-10 11:06:00,75.0,72.2,29.69,East,84,10.4,10.4,91,0.00,OVC,SKC,0.00,388.0,WeatherDisplay:10.37,2013-04-10 16:06:00,
2013-04-10 11:11:00,75.3,72.2,29.69,East,98,5.8,5.8,90,0.00,OVC,SKC,0.00,362.0,WeatherDisplay:10.37,2013-04-10 16:11:00,
2013-04-10 11:16:00,75.6,72.5,29.69,SSE,153,6.9,6.9,90,0.00,OVC,SKC,0.00,265.0,WeatherDisplay:10.37,2013-04-10 16:16:00,
2013-04-10 11:21:00,75.8,72.3,29.69,SW,214,6.9,6.9,89,0.00,OVC,SKC,0.00,431.0,WeatherDisplay:10.37,2013-04-10 16:21:00,
2013-04-10 11:26:00,75.9,72.4,29.70,ESE,117,5.8,5.8,89,0.00,OVC,SKC,0.00,339.0,WeatherDisplay:10.37,2013-04-10 16:26:00,
2013-04-10 11:31:00,76.1,72.3,29.70,East,92,8.1,8.1,88,0.00,OVC,SKC,0.00,346.0,WeatherDisplay:10.37,2013-04-10 16:31:00,
2013-04-10 11:36:00,76.3,72.5,29.70,South,172,3.5,3.5,88,0.00,OVC,SKC,0.00,360.0,WeatherDisplay:10.37,2013-04-10 16:36:00,
2013-04-10 11:41:00,76.6,72.4,29.70,SW,215,4.6,4.6,87,0.00,OVC,SKC,0.00,571.0,WeatherDisplay:10.37,2013-04-10 16:41:00,
2013-04-10 11:46:00,77.1,72.6,29.70,ESE,113,5.8,5.8,86,0.00,OVC,SKC,0.00,369.0,WeatherDisplay:10.37,2013-04-10 16:46:00,
2013-04-10 11:51:00,77.3,72.8,29.70,ESE,121,4.6,4.6,86,0.00,OVC,SKC,0.00,345.0,WeatherDisplay:10.37,2013-04-10 16:51:00,
2013-04-10 11:56:00,77.4,72.5,29.70,SSE,148,4.6,4.6,85,0.00,OVC,SKC,0.00,345.0,WeatherDisplay:10.37,2013-04-10 16:56:00,
2013-04-10 12:01:00,77.3,72.1,29.70,South,171,6.9,6.9,84,0.00,OVC,SKC,0.00,390.0,WeatherDisplay:10.37,2013-04-10 17:01:00,
2013-04-10 12:06:00,77.2,72.3,29.70,SSE,163,2.3,2.3,85,0.00,BKN,SKC,0.00,406.0,WeatherDisplay:10.37,2013-04-10 17:06:00,
2013-04-10 12:11:00,77.2,72.0,29.70,SSE,152,4.6,4.6,84,0.00,BKN,SKC,0.00,338.0,WeatherDisplay:10.37,2013-04-10 17:11:00,
2013-04-10 12:16:00,77.2,72.0,29.70,South,170,5.8,5.8,84,0.00,BKN,SKC,0.00,345.0,WeatherDisplay:10.37,2013-04-10 17:16:00,
2013-04-10 12:21:00,77.2,72.3,29.70,South,169,1.1,1.1,85,0.00,BKN,SKC,0.00,403.0,WeatherDisplay:10.37,2013-04-10 17:21:00,
2013-04-10 12:26:00,77.3,72.1,29.69,SE,130,9.2,9.2,84,0.00,BKN,SKC,0.00,833.0,WeatherDisplay:10.37,2013-04-10 17:26:00,
2013-04-10 12:31:00,77.5,72.3,29.69,South,184,3.5,3.5,84,0.00,BKN,SKC,0.00,406.0,WeatherDisplay:10.37,2013-04-10 17:31:00,
2013-04-10 12:36:00,77.7,72.5,29.69,SSE,168,4.0,4.0,84,0.00,BKN,SKC,0.00,378.0,WeatherDisplay:10.37,2013-04-10 17:36:00,
2013-04-10 12:41:00,77.5,71.9,29.69,SSE,166,5.8,5.8,83,0.00,BKN,SKC,0.00,380.0,WeatherDisplay:10.37,2013-04-10 17:41:00,
2013-04-10 12:46:00,77.3,71.7,29.69,SSE,165,5.8,5.8,83,0.00,BKN,SKC,0.00,367.0,WeatherDisplay:10.37,2013-04-10 17:46:00,
2013-04-10 12:51:00,77.2,72.0,29.69,SSE,150,5.8,5.8,84,0.00,BKN,SKC,0.00,388.0,WeatherDisplay:10.37,2013-04-10 17:51:00,
2013-04-10 12:56:00,77.0,71.8,29.68,South,186,5.8,5.8,84,0.00,BKN,SKC,0.00,348.0,WeatherDisplay:10.37,2013-04-10 17:56:00,
2013-04-10 13:01:00,76.7,71.5,29.68,SSE,165,6.9,6.9,84,0.00,BKN,SKC,0.00,274.0,WeatherDisplay:10.37,2013-04-10 18:01:00,
2013-04-10 13:06:00,76.5,71.7,29.68,ESE,113,5.0,5.0,85,0.00,OVC,SKC,0.00,330.0,WeatherDisplay:10.37,2013-04-10 18:06:00,
2013-04-10 13:11:00,76.4,71.6,29.69,SE,134,4.6,4.6,85,0.00,OVC,SKC,0.00,308.0,WeatherDisplay:10.37,2013-04-10 18:11:00,
2013-04-10 13:16:00,76.4,71.6,29.69,SE,140,6.9,6.9,85,0.00,OVC,SKC,0.00,274.0,WeatherDisplay:10.37,2013-04-10 18:16:00,
2013-04-10 13:21:00,76.4,71.9,29.69,SSW,207,4.0,4.0,86,0.00,OVC,SKC,0.00,237.0,WeatherDisplay:10.37,2013-04-10 18:21:00,
2013-04-10 13:26:00,76.4,71.6,29.68,SE,140,4.6,4.6,85,0.00,OVC,SKC,0.00,232.0,WeatherDisplay:10.37,2013-04-10 18:26:00,
2013-04-10 13:31:00,76.3,71.5,29.68,SE,136,3.5,3.5,85,0.00,OVC,SKC,0.00,251.0,WeatherDisplay:10.37,2013-04-10 18:31:00,
2013-04-10 13:36:00,76.4,71.6,29.68,SSE,150,6.9,6.9,85,0.00,OVC,SKC,0.00,285.0,WeatherDisplay:10.37,2013-04-10 18:36:00,
2013-04-10 13:41:00,76.3,71.5,29.68,SSE,153,3.5,3.5,85,0.00,OVC,SKC,0.00,285.0,WeatherDisplay:10.37,2013-04-10 18:41:00,
2013-04-10 13:46:00,76.3,71.5,29.68,SE,146,3.5,3.5,85,0.00,OVC,SKC,0.00,295.0,WeatherDisplay:10.37,2013-04-10 18:46:00,
2013-04-10 13:51:00,76.4,71.6,29.68,ESE,117,4.0,4.0,85,0.00,OVC,SKC,0.00,267.0,WeatherDisplay:10.37,2013-04-10 18:51:00,
2013-04-10 13:56:00,76.5,71.7,29.68,SSE,162,4.6,4.6,85,0.00,OVC,SKC,0.00,359.0,WeatherDisplay:10.37,2013-04-10 18:56:00,
2013-04-10 14:01:00,76.4,71.6,29.68,SE,133,3.5,3.5,85,0.00,OVC,SKC,0.00,299.0,WeatherDisplay:10.37,2013-04-10 19:01:00,
2013-04-10 14:06:00,76.3,71.5,29.68,ESE,106,6.9,6.9,85,0.00,OVC,SKC,0.00,316.0,WeatherDisplay:10.37,2013-04-10 19:06:00,
2013-04-10 14:11:00,76.1,71.3,29.67,ESE,104,5.8,5.8,85,0.00,OVC,SKC,0.00,336.0,WeatherDisplay:10.37,2013-04-10 19:11:00,
2013-04-10 14:16:00,76.1,71.3,29.67,SSE,151,4.6,4.6,85,0.00,OVC,SKC,0.00,364.0,WeatherDisplay:10.37,2013-04-10 19:16:00,
2013-04-10 14:21:00,76.0,71.2,29.67,SE,131,9.2,9.2,85,0.00,OVC,SKC,0.00,432.0,WeatherDisplay:10.37,2013-04-10 19:21:00,
2013-04-10 14:26:00,76.0,71.5,29.66,ESE,117,6.9,6.9,86,0.00,OVC,SKC,0.00,313.0,WeatherDisplay:10.37,2013-04-10 19:26:00,
2013-04-10 14:31:00,76.0,71.2,29.66,ESE,105,5.8,5.8,85,0.00,OVC,SKC,0.00,352.0,WeatherDisplay:10.37,2013-04-10 19:31:00,
2013-04-10 14:36:00,75.8,71.0,29.66,SE,130,10.4,10.4,85,0.00,OVC,SKC,0.00,376.0,WeatherDisplay:10.37,2013-04-10 19:36:00,
2013-04-10 14:41:00,75.6,71.1,29.66,ESE,113,10.4,10.4,86,0.00,OVC,SKC,0.00,427.0,WeatherDisplay:10.37,2013-04-10 19:41:00,
2013-04-10 14:46:00,75.7,71.2,29.66,SE,124,9.2,9.2,86,0.00,OVC,SKC,0.00,427.0,WeatherDisplay:10.37,2013-04-10 19:46:00,
2013-04-10 14:51:00,75.9,71.4,29.66,ESE,121,10.0,10.0,86,0.00,OVC,SKC,0.00,357.0,WeatherDisplay:10.37,2013-04-10 19:51:00,
2013-04-10 14:56:00,76.0,71.2,29.66,SE,134,11.5,11.5,85,0.00,OVC,SKC,0.00,512.0,WeatherDisplay:10.37,2013-04-10 19:56:00,
2013-04-10 15:01:00,76.2,71.7,29.66,ESE,103,9.2,9.2,86,0.00,OVC,SKC,0.00,371.0,WeatherDisplay:10.37,2013-04-10 20:01:00,
2013-04-10 15:06:00,76.5,71.7,29.66,SE,144,5.8,5.8,85,0.00,OVC,SKC,0.00,323.0,WeatherDisplay:10.37,2013-04-10 20:06:00,
2013-04-10 15:11:00,73.7,64.9,29.68,NNE,15,19.6,19.6,74,0.00,OVC,SKC,0.00,26.0,WeatherDisplay:10.37,2013-04-10 20:11:00,
2013-04-10 15:16:00,67.0,60.3,29.68,North,360,19.6,19.6,79,0.00,OVC,SKC,0.00,18.0,WeatherDisplay:10.37,2013-04-10 20:16:00,
2013-04-10 15:21:00,64.3,59.0,29.68,NW,309,20.7,20.7,83,0.00,OVC,SKC,0.00,44.0,WeatherDisplay:10.37,2013-04-10 20:21:00,
2013-04-10 15:26:00,63.1,58.5,29.68,NNW,330,19.6,19.6,85,0.00,OVC,SKC,0.00,62.0,WeatherDisplay:10.37,2013-04-10 20:26:00,
2013-04-10 15:31:00,62.8,58.5,29.68,NNW,339,19.6,19.6,86,0.00,OVC,SKC,0.00,98.0,WeatherDisplay:10.37,2013-04-10 20:31:00,
2013-04-10 15:36:00,62.0,57.4,29.68,North,355,19.6,19.6,85,0.00,OVC,SKC,0.00,156.0,WeatherDisplay:10.37,2013-04-10 20:36:00,
2013-04-10 15:41:00,62.0,58.1,29.69,NNW,346,18.4,18.4,87,0.00,OVC,SKC,0.00,135.0,WeatherDisplay:10.37,2013-04-10 20:41:00,
2013-04-10 15:46:00,61.3,56.8,29.69,NW,319,19.6,19.6,85,0.00,OVC,SKC,0.00,128.0,WeatherDisplay:10.37,2013-04-10 20:46:00,
2013-04-10 15:51:00,60.9,56.7,29.69,NNW,334,14.0,24.0,86,0.00,CLR,SKC,0.00,139.0,WeatherDisplay:10.37,2013-04-10 20:51:00,
2013-04-10 15:56:00,60.7,56.5,29.69,North,9,16.1,16.1,86,0.00,OVC,SKC,0.00,193.0,WeatherDisplay:10.37,2013-04-10 20:56:00,
2013-04-10 16:01:00,60.3,56.1,29.69,North,9,19.6,19.6,86,0.00,OVC,SKC,0.00,181.0,WeatherDisplay:10.37,2013-04-10 21:01:00,
2013-04-10 16:06:00,60.2,56.3,29.69,NNW,332,16.1,16.1,87,0.00,CLR,SKC,0.00,176.0,WeatherDisplay:10.37,2013-04-10 21:06:00,
2013-04-10 16:11:00,59.9,56.0,29.70,NNW,341,17.3,17.3,87,0.00,CLR,SKC,0.00,123.0,WeatherDisplay:10.37,2013-04-10 21:11:00,
2013-04-10 16:16:00,59.7,55.8,29.70,NNW,328,16.1,16.1,87,0.00,OVC,SKC,0.00,171.0,WeatherDisplay:10.37,2013-04-10 21:16:00,
2013-04-10 16:21:00,59.8,55.9,29.70,North,5,19.6,19.6,87,0.00,CLR,SKC,0.00,172.0,WeatherDisplay:10.37,2013-04-10 21:21:00,
2013-04-10 16:26:00,59.7,55.8,29.69,NNE,13,15.0,15.0,87,0.00,CLR,SKC,0.00,160.0,WeatherDisplay:10.37,2013-04-10 21:26:00,
2013-04-10 16:31:00,59.7,55.5,29.69,NNW,340,20.7,20.7,86,0.00,CLR,SKC,0.00,151.0,WeatherDisplay:10.37,2013-04-10 21:31:00,
2013-04-10 16:36:00,59.8,55.9,29.69,NE,44,15.0,15.0,87,0.00,CLR,SKC,0.00,120.0,WeatherDisplay:10.37,2013-04-10 21:36:00,
2013-04-10 16:41:00,59.7,55.5,29.69,NNE,12,17.3,17.3,86,0.00,CLR,SKC,0.00,88.0,WeatherDisplay:10.37,2013-04-10 21:41:00,
2013-04-10 16:46:00,59.5,55.3,29.69,NNE,13,21.9,21.9,86,0.00,CLR,SKC,0.00,95.0,WeatherDisplay:10.37,2013-04-10 21:46:00,
2013-04-10 16:51:00,59.5,55.3,29.69,NNW,327,15.0,15.0,86,0.00,CLR,SKC,0.00,128.0,WeatherDisplay:10.37,2013-04-10 21:51:00,
2013-04-10 16:56:00,59.4,55.2,29.69,North,360,15.0,15.0,86,0.00,CLR,SKC,0.00,116.0,WeatherDisplay:10.37,2013-04-10 21:56:00,
2013-04-10 17:01:00,59.3,55.1,29.69,NNW,336,16.1,16.1,86,0.00,CLR,SKC,0.00,111.0,WeatherDisplay:10.37,2013-04-10 22:01:00,
2013-04-10 17:06:00,59.2,55.3,29.69,NW,317,16.1,16.1,87,0.00,CLR,SKC,0.00,91.0,WeatherDisplay:10.37,2013-04-10 22:06:00,
2013-04-10 17:11:00,59.0,55.4,29.68,NW,322,17.3,17.3,88,0.00,CLR,SKC,0.00,107.0,WeatherDisplay:10.37,2013-04-10 22:11:00,
2013-04-10 17:16:00,58.8,55.3,29.68,North,9,19.6,19.6,88,0.00,CLR,SKC,0.00,97.0,WeatherDisplay:10.37,2013-04-10 22:16:00,
2013-04-10 17:21:00,58.6,55.1,29.68,NNW,344,16.1,16.1,88,0.00,CLR,SKC,0.00,102.0,WeatherDisplay:10.37,2013-04-10 22:21:00,
2013-04-10 17:26:00,58.8,55.6,29.68,NNW,328,19.6,19.6,89,0.00,CLR,SKC,0.00,69.0,WeatherDisplay:10.37,2013-04-10 22:26:00,
2013-04-10 17:31:00,59.0,55.8,29.68,NNW,336,13.8,13.8,89,0.00,CLR,SKC,0.00,70.0,WeatherDisplay:10.37,2013-04-10 22:31:00,
2013-04-10 17:36:00,59.2,55.6,29.68,ENE,60,16.1,16.1,88,0.00,CLR,SKC,0.00,72.0,WeatherDisplay:10.37,2013-04-10 22:36:00,
2013-04-10 17:41:00,59.1,55.5,29.68,NNW,348,12.7,12.7,88,0.00,CLR,SKC,0.00,67.0,WeatherDisplay:10.37,2013-04-10 22:41:00,
2013-04-10 17:46:00,59.1,55.5,29.68,WNW,301,13.8,13.8,88,0.00,CLR,SKC,0.00,69.0,WeatherDisplay:10.37,2013-04-10 22:46:00,
2013-04-10 17:51:00,59.5,56.3,29.68,North,5,13.8,13.8,89,0.00,CLR,SKC,0.00,63.0,WeatherDisplay:10.37,2013-04-10 22:51:00,
2013-04-10 17:56:00,59.8,56.2,29.68,NNE,22,13.8,13.8,88,0.00,CLR,SKC,0.00,46.0,WeatherDisplay:10.37,2013-04-10 22:56:00,
2013-04-10 18:01:00,59.7,56.1,29.68,NNE,19,13.8,13.8,88,0.00,OVC,SKC,0.00,46.0,WeatherDisplay:10.37,2013-04-10 23:01:00,
2013-04-10 18:06:00,59.9,56.3,29.68,NNW,338,6.9,6.9,88,0.00,CLR,SKC,0.00,33.0,WeatherDisplay:10.37,2013-04-10 23:06:00,
2013-04-10 18:11:00,59.9,56.0,29.69,North,360,17.3,17.3,87,0.00,CLR,SKC,0.00,28.0,WeatherDisplay:10.37,2013-04-10 23:11:00,
2013-04-10 18:16:00,59.9,56.3,29.69,North,350,17.3,17.3,88,0.00,CLR,SKC,0.00,32.0,WeatherDisplay:10.37,2013-04-10 23:16:00,
2013-04-10 18:21:00,59.7,55.8,29.69,NNE,17,13.8,13.8,87,0.00,CLR,SKC,0.00,28.0,WeatherDisplay:10.37,2013-04-10 23:21:00,
2013-04-10 18:26:00,59.8,56.2,29.70,North,10,14.0,14.0,88,0.00,CLR,SKC,0.00,23.0,WeatherDisplay:10.37,2013-04-10 23:26:00,
2013-04-10 18:31:00,59.9,56.3,29.70,NNE,26,16.0,16.0,88,0.00,CLR,SKC,0.00,26.0,WeatherDisplay:10.37,2013-04-10 23:31:00,
2013-04-10 18:36:00,59.9,56.0,29.70,NW,323,16.1,16.1,87,0.00,CLR,SKC,0.00,42.0,WeatherDisplay:10.37,2013-04-10 23:36:00,
2013-04-10 18:41:00,59.9,56.0,29.70,NNE,16,12.7,12.7,87,0.00,CLR,SKC,0.00,44.0,WeatherDisplay:10.37,2013-04-10 23:41:00,
2013-04-10 18:46:00,59.9,56.3,29.70,North,360,15.0,15.0,88,0.00,CLR,SKC,0.00,42.0,WeatherDisplay:10.37,2013-04-10 23:46:00,
2013-04-10 18:51:00,60.0,56.1,29.70,North,11,16.1,16.1,87,0.00,CLR,SKC,0.00,39.0,WeatherDisplay:10.37,2013-04-10 23:51:00,
2013-04-10 18:57:00,59.7,55.8,29.69,NNE,30,13.8,13.8,87,0.00,CLR,SKC,0.00,35.0,WeatherDisplay:10.37,2013-04-10 23:57:00,
2013-04-10 19:02:00,59.5,55.3,29.69,NNE,15,14.0,14.0,86,0.00,CLR,SKC,0.00,30.0,WeatherDisplay:10.37,2013-04-11 00:02:00,
2013-04-10 19:07:00,59.6,55.7,29.69,North,355,16.0,16.0,87,0.00,CLR,SKC,0.00,23.0,WeatherDisplay:10.37,2013-04-11 00:07:00,
2013-04-10 19:12:00,59.6,55.4,29.70,NNW,337,11.5,11.5,86,0.00,CLR,SKC,0.00,19.0,WeatherDisplay:10.37,2013-04-11 00:12:00,
2013-04-10 19:17:00,59.6,55.4,29.70,NE,42,17.3,17.3,86,0.00,CLR,SKC,0.00,16.0,WeatherDisplay:10.37,2013-04-11 00:17:00,
2013-04-10 19:22:00,59.6,55.4,29.70,North,360,11.5,11.5,86,0.00,CLR,SKC,0.00,12.0,WeatherDisplay:10.37,2013-04-11 00:22:00,
2013-04-10 19:27:00,59.7,55.5,29.70,North,360,13.8,13.8,86,0.00,CLR,SKC,0.00,11.0,WeatherDisplay:10.37,2013-04-11 00:27:00,
2013-04-10 19:32:00,60.0,55.8,29.70,NNE,19,12.7,12.7,86,0.00,CLR,SKC,0.00,9.0,WeatherDisplay:10.37,2013-04-11 00:32:00,
2013-04-10 19:37:00,60.0,55.5,29.70,North,355,16.1,16.1,85,0.00,CLR,SKC,0.00,7.0,WeatherDisplay:10.37,2013-04-11 00:37:00,
2013-04-10 19:42:00,60.0,55.5,29.70,NNE,33,18.4,18.4,85,0.00,CLR,SKC,0.00,0.0,WeatherDisplay:10.37,2013-04-11 00:42:00,
2013-04-10 19:47:00,60.1,55.9,29.70,NNE,19,16.1,16.1,86,0.00,CLR,SKC,0.00,0.0,WeatherDisplay:10.37,2013-04-11 00:47:00,
2013-04-10 19:53:00,60.3,56.1,29.70,NNE,32,15.0,15.0,86,0.00,CLR,SKC,0.00,0.0,WeatherDisplay:10.37,2013-04-11 00:53:00,
2013-04-10 19:58:00,60.3,56.1,29.70,North,5,14.0,14.0,86,0.00,CLR,SKC,0.00,0.0,WeatherDisplay:10.37,2013-04-11 00:58:00,
2013-04-10 20:03:00,60.4,56.2,29.70,NNE,20,13.8,13.8,86,0.00,CLR,SKC,0.00,0.0,WeatherDisplay:10.37,2013-04-11 01:03:00,
2013-04-10 20:08:00,60.5,56.6,29.70,NNE,24,15.0,15.0,87,0.00,CLR,SKC,0.00,0.0,WeatherDisplay:10.37,2013-04-11 01:08:00,
2013-04-10 20:13:00,60.5,56.3,29.71,NNE,15,17.0,17.0,86,0.00,CLR,SKC,0.00,0.0,WeatherDisplay:10.37,2013-04-11 01:13:00,
2013-04-10 20:18:00,60.6,56.4,29.71,NNE,28,17.3,17.3,86,0.00,CLR,SKC,0.00,0.0,WeatherDisplay:10.37,2013-04-11 01:18:00,
2013-04-10 20:23:00,60.6,56.1,29.71,NNE,29,16.1,16.1,85,0.00,CLR,SKC,0.00,0.0,WeatherDisplay:10.37,2013-04-11 01:23:00,
2013-04-10 20:28:00,60.5,56.0,29.71,NNE,25,17.3,17.3,85,0.00,CLR,SKC,0.00,0.0,WeatherDisplay:10.37,2013-04-11 01:28:00,
2013-04-10 20:33:00,60.5,56.0,29.71,NNE,17,17.3,17.3,85,0.00,CLR,SKC,0.00,0.0,WeatherDisplay:10.37,2013-04-11 01:33:00,
2013-04-10 20:38:00,60.5,55.6,29.71,North,355,19.6,19.6,84,0.00,CLR,SKC,0.00,0.0,WeatherDisplay:10.37,2013-04-11 01:38:00,
2013-04-10 20:43:00,60.5,56.0,29.72,North,9,16.1,16.1,85,0.00,CLR,SKC,0.00,0.0,WeatherDisplay:10.37,2013-04-11 01:43:00,
2013-04-10 20:48:00,60.4,55.5,29.72,NNE,22,15.0,15.0,84,0.00,CLR,SKC,0.00,0.0,WeatherDisplay:10.37,2013-04-11 01:48:00,
2013-04-10 20:53:00,60.5,55.6,29.72,NW,311,13.8,13.8,84,0.00,CLR,SKC,0.00,0.0,WeatherDisplay:10.37,2013-04-11 01:53:00,
2013-04-10 20:58:00,60.4,55.5,29.73,North,351,15.0,15.0,84,0.00,CLR,SKC,0.00,0.0,WeatherDisplay:10.37,2013-04-11 01:58:00,
2013-04-10 21:03:00,60.5,56.0,29.73,ENE,59,19.6,19.6,85,0.00,CLR,SKC,0.00,0.0,WeatherDisplay:10.37,2013-04-11 02:03:00,
2013-04-10 21:08:00,60.2,55.3,29.73,NNE,12,19.6,19.6,84,0.00,CLR,SKC,0.00,0.0,WeatherDisplay:10.37,2013-04-11 02:08:00,
2013-04-10 21:13:00,60.2,55.7,29.73,NNE,27,19.6,19.6,85,0.00,CLR,SKC,0.00,0.0,WeatherDisplay:10.37,2013-04-11 02:13:00,
2013-04-10 21:18:00,60.0,55.5,29.73,NNE,30,19.6,19.6,85,0.00,CLR,SKC,0.00,0.0,WeatherDisplay:10.37,2013-04-11 02:18:00,
2013-04-10 21:23:00,59.9,55.4,29.73,NNE,17,18.4,18.4,85,0.00,CLR,SKC,0.00,0.0,WeatherDisplay:10.37,2013-04-11 02:23:00,
2013-04-10 21:28:00,60.0,55.5,29.73,North,11,13.8,13.8,85,0.00,CLR,SKC,0.00,0.0,WeatherDisplay:10.37,2013-04-11 02:28:00,
2013-04-10 21:33:00,59.9,55.1,29.73,NE,47,19.6,19.6,84,0.00,CLR,SKC,0.00,0.0,WeatherDisplay:10.37,2013-04-11 02:33:00,
2013-04-10 21:38:00,59.9,55.1,29.73,NNE,19,17.0,17.0,84,0.00,CLR,SKC,0.00,0.0,WeatherDisplay:10.37,2013-04-11 02:38:00,
2013-04-10 21:43:00,59.9,55.1,29.74,North,355,21.9,21.9,84,0.00,CLR,SKC,0.00,0.0,WeatherDisplay:10.37,2013-04-11 02:43:00,
2013-04-10 21:48:00,60.0,55.2,29.74,NNE,22,18.4,18.4,84,0.00,CLR,SKC,0.00,0.0,WeatherDisplay:10.37,2013-04-11 02:48:00,
2013-04-10 21:53:00,60.0,55.2,29.74,NNE,28,18.4,18.4,84,0.00,CLR,SKC,0.00,0.0,WeatherDisplay:10.37,2013-04-11 02:53:00,
2013-04-10 21:58:00,60.2,55.3,29.75,NNE,13,19.6,19.6,84,0.00,CLR,SKC,0.00,0.0,WeatherDisplay:10.37,2013-04-11 02:58:00,
2013-04-10 22:03:00,60.1,55.2,29.75,NNE,28,19.6,19.6,84,0.00,CLR,SKC,0.00,0.0,WeatherDisplay:10.37,2013-04-11 03:03:00,
2013-04-10 22:08:00,60.2,55.3,29.75,NE,42,16.1,16.1,84,0.00,CLR,SKC,0.00,0.0,WeatherDisplay:10.37,2013-04-11 03:08:00,
2013-04-10 22:13:00,60.0,54.8,29.75,NNE,25,19.6,19.6,83,0.00,CLR,SKC,0.00,0.0,WeatherDisplay:10.37,2013-04-11 03:13:00,
2013-04-10 22:18:00,60.0,54.8,29.75,NE,51,17.3,17.3,83,0.00,CLR,SKC,0.00,0.0,WeatherDisplay:10.37,2013-04-11 03:18:00,
2013-04-10 22:23:00,60.0,54.8,29.75,NE,42,19.6,19.6,83,0.00,CLR,SKC,0.00,0.0,WeatherDisplay:10.37,2013-04-11 03:23:00,
2013-04-10 22:28:00,60.1,55.2,29.75,NNE,17,18.4,18.4,84,0.00,CLR,SKC,0.00,0.0,WeatherDisplay:10.37,2013-04-11 03:28:00,
2013-04-10 22:33:00,60.1,55.2,29.75,NNW,340,12.7,12.7,84,0.00,CLR,SKC,0.00,0.0,WeatherDisplay:10.37,2013-04-11 03:33:00,
2013-04-10 22:38:00,60.1,54.9,29.75,North,5,12.7,12.7,83,0.00,CLR,SKC,0.00,0.0,WeatherDisplay:10.37,2013-04-11 03:38:00,
2013-04-10 22:43:00,59.9,54.4,29.76,NNE,28,15.0,15.0,82,0.00,CLR,SKC,0.00,0.0,WeatherDisplay:10.37,2013-04-11 03:43:00,
2013-04-10 22:48:00,59.8,54.6,29.76,North,350,15.0,15.0,83,0.00,CLR,SKC,0.00,0.0,WeatherDisplay:10.37,2013-04-11 03:48:00,
2013-04-10 22:53:00,59.7,54.2,29.76,North,355,17.3,17.3,82,0.00,CLR,SKC,0.00,0.0,WeatherDisplay:10.37,2013-04-11 03:53:00,
2013-04-10 22:58:00,59.5,54.0,29.76,North,11,21.9,21.9,82,0.00,CLR,SKC,0.00,0.0,WeatherDisplay:10.37,2013-04-11 03:58:00,
2013-04-10 23:00:00,59.4,53.9,29.76,NNE,32,18.4,18.4,82,0.00,-RA,SKC,0.00,0.0,WeatherDisplay:10.37,2013-04-11 04:00:00,
2013-04-10 23:05:00,59.4,54.2,29.76,NNW,331,19.6,19.6,83,0.00,BKN,SKC,0.00,0.0,WeatherDisplay:10.37,2013-04-11 04:05:00,
2013-04-10 23:10:00,59.3,53.8,29.78,NNW,341,19.6,19.6,82,0.00,BKN,SKC,0.00,0.0,WeatherDisplay:10.37,2013-04-11 04:10:00,
2013-04-10 23:15:00,59.3,53.8,29.78,NE,35,17.3,17.3,82,0.00,BKN,SKC,0.00,0.0,WeatherDisplay:10.37,2013-04-11 04:15:00,
2013-04-10 23:20:00,59.3,53.5,29.78,North,350,17.3,17.3,81,0.00,BKN,SKC,0.00,0.0,WeatherDisplay:10.37,2013-04-11 04:20:00,
2013-04-10 23:25:00,59.5,54.0,29.79,NNE,13,17.3,17.3,82,0.00,BKN,SKC,0.00,0.0,WeatherDisplay:10.37,2013-04-11 04:25:00,
2013-04-10 23:30:00,59.4,53.9,29.79,North,5,11.5,11.5,82,0.00,BKN,SKC,0.00,0.0,WeatherDisplay:10.37,2013-04-11 04:30:00,
2013-04-10 23:35:00,59.4,53.9,29.79,NE,43,11.5,11.5,82,0.00,BKN,SKC,0.00,0.0,WeatherDisplay:10.37,2013-04-11 04:35:00,
2013-04-10 23:40:00,59.3,53.8,29.80,NNW,347,12.7,12.7,82,0.00,BKN,SKC,0.00,0.0,WeatherDisplay:10.37,2013-04-11 04:40:00,
2013-04-10 23:45:00,59.2,54.0,29.80,NW,315,12.7,12.7,83,0.00,BKN,SKC,0.00,0.0,WeatherDisplay:10.37,2013-04-11 04:45:00,
2013-04-10 23:50:00,59.0,53.8,29.80,North,355,11.5,11.5,83,0.00,BKN,SKC,0.00,0.0,WeatherDisplay:10.37,2013-04-11 04:50:00,
2013-04-10 23:55:00,58.8,53.6,29.80,NW,313,16.1,16.1,83,0.00,BKN,SKC,0.00,0.0,WeatherDisplay:10.37,2013-04-11 04:55:00,